• In Hungary
  • List of Countries
  • For 7 days
  • Water Temperature
  • Satellite Maps
  • Weather Map
  • News
  • Weather Widgets
  • user-avatar
    Login

    Hourly Weather Molokovo

    Today, 25 June, Monday

    Time Temperature Precipitation Wind Pressure Humidity
    00:00 +15°C° 0.2 mm 2 mps 743 mmHg 93%
    01:00 +14°C° 0.2 mm 2 mps 743 mmHg 93%
    02:00 +13°C° 0 mm 2 mps 744 mmHg 94%
    03:00 +13°C° 1.4 mm 2 mps 744 mmHg 93%
    04:00 +13°C° 1.4 mm 2 mps 744 mmHg 93%
    05:00 +13°C° 1.4 mm 2 mps 744 mmHg 93%
    06:00 +14°C° 0.2 mm 2 mps 744 mmHg 88%
    07:00 +15°C° 0.2 mm 2 mps 745 mmHg 83%
    08:00 +17°C° 0 mm 2 mps 745 mmHg 73%
    09:00 +18°C° 0 mm 3 mps 745 mmHg 66%
    10:00 +20°C° 0 mm 3 mps 745 mmHg 59%
    11:00 +21°C° 0 mm 3 mps 746 mmHg 51%
    12:00 +22°C° 0 mm 3 mps 746 mmHg 49%
    13:00 +24°C° 0 mm 3 mps 746 mmHg 48%
    14:00 +22°C° 0 mm 3 mps 747 mmHg 48%
    15:00 +22°C° 0 mm 3 mps 747 mmHg 49%
    16:00 +22°C° 0 mm 3 mps 747 mmHg 51%
    17:00 +23°C° 0 mm 2 mps 748 mmHg 52%
    18:00 +20°C° 0 mm 2 mps 748 mmHg 60%
    19:00 +18°C° 0 mm 2 mps 748 mmHg 67%
    20:00 +18°C° 0 mm 1 mps 748 mmHg 74%
    21:00 +15°C° 0 mm 1 mps 748 mmHg 77%
    22:00 +14°C° 0 mm 1 mps 749 mmHg 79%
    23:00 +13°C° 0 mm 1 mps 749 mmHg 81%

    Tomorrow, 26 June, Tuesday

    Time Temperature Precipitation Wind Pressure Humidity
    00:00 +13°C° 0 mm 1 mps 749 mmHg 83%
    01:00 +12°C° 0 mm 1 mps 750 mmHg 84%
    02:00 +12°C° 0 mm 1 mps 750 mmHg 86%
    03:00 +13°C° 0 mm 1 mps 750 mmHg 83%
    04:00 +14°C° 0 mm 1 mps 751 mmHg 81%
    05:00 +15°C° 0 mm 1 mps 751 mmHg 78%
    06:00 +18°C° 0 mm 1 mps 751 mmHg 71%
    07:00 +20°C° 0 mm 1 mps 752 mmHg 63%
    08:00 +22°C° 0 mm 1 mps 752 mmHg 56%
    09:00 +23°C° 0 mm 1 mps 752 mmHg 52%
    10:00 +24°C° 0 mm 1 mps 752 mmHg 48%
    11:00 +25°C° 0 mm 1 mps 752 mmHg 43%
    12:00 +25°C° 0 mm 1 mps 752 mmHg 44%
    13:00 +25°C° 0 mm 1 mps 752 mmHg 45%
    14:00 +25°C° 0 mm 2 mps 752 mmHg 46%
    15:00 +25°C° 0 mm 2 mps 752 mmHg 48%
    16:00 +25°C° 0 mm 2 mps 752 mmHg 49%
    17:00 +25°C° 0 mm 2 mps 752 mmHg 51%
    18:00 +23°C° 0 mm 2 mps 752 mmHg 58%
    19:00 +21°C° 0 mm 1 mps 752 mmHg 65%
    20:00 +19°C° 0 mm 1 mps 752 mmHg 72%
    21:00 +18°C° 0 mm 1 mps 752 mmHg 75%
    22:00 +16°C° 0 mm 1 mps 753 mmHg 77%
    23:00 +15°C° 0 mm 1 mps 753 mmHg 79%

    Day after tomorrow, 27 June, Wednesday

    Time Temperature Precipitation Wind Pressure Humidity
    00:00 +15°C° 0 mm 1 mps 753 mmHg 80%
    01:00 +14°C° 0 mm 1 mps 753 mmHg 81%
    02:00 +14°C° 0 mm 1 mps 753 mmHg 82%
    03:00 +15°C° 0 mm 1 mps 754 mmHg 80%
    04:00 +15°C° 0 mm 1 mps 754 mmHg 79%
    05:00 +16°C° 0 mm 1 mps 754 mmHg 77%
    06:00 +19°C° 0 mm 1 mps 754 mmHg 70%
    07:00 +21°C° 0 mm 1 mps 754 mmHg 63%
    08:00 +23°C° 0 mm 2 mps 754 mmHg 56%
    09:00 +24°C° 0 mm 2 mps 754 mmHg 52%
    10:00 +25°C° 0 mm 2 mps 754 mmHg 47%
    11:00 +26°C° 0 mm 2 mps 753 mmHg 42%
    12:00 +26°C° 0 mm 2 mps 753 mmHg 42%
    13:00 +26°C° 0 mm 2 mps 753 mmHg 42%
    14:00 +27°C° 0 mm 2 mps 753 mmHg 42%
    15:00 +26°C° 0 mm 2 mps 753 mmHg 45%
    16:00 +26°C° 0 mm 2 mps 752 mmHg 47%
    17:00 +26°C° 0 mm 2 mps 752 mmHg 49%
    18:00 +24°C° 0 mm 2 mps 752 mmHg 56%
    19:00 +21°C° 0 mm 2 mps 752 mmHg 63%
    20:00 +19°C° 0 mm 2 mps 752 mmHg 71%
    21:00 +18°C° 0 mm 2 mps 752 mmHg 73%
    22:00 +17°C° 0 mm 2 mps 753 mmHg 75%
    23:00 +16°C° 0 mm 2 mps 753 mmHg 77%

    28 June, Thursday

    Time Temperature Precipitation Wind Pressure Humidity
    00:00 +16°C° 0 mm 2 mps 753 mmHg 80%
    01:00 +15°C° 0 mm 2 mps 753 mmHg 83%
    02:00 +14°C° 0 mm 2 mps 753 mmHg 85%
    03:00 +15°C° 0 mm 2 mps 753 mmHg 83%
    04:00 +16°C° 0 mm 2 mps 753 mmHg 81%
    05:00 +16°C° 0 mm 2 mps 753 mmHg 79%
    06:00 +18°C° 0 mm 2 mps 753 mmHg 72%
    07:00 +20°C° 0 mm 2 mps 753 mmHg 64%
    08:00 +23°C° 0 mm 2 mps 753 mmHg 57%
    09:00 +24°C° 0 mm 2 mps 753 mmHg 52%
    10:00 +25°C° 0 mm 2 mps 752 mmHg 48%
    11:00 +26°C° 0 mm 2 mps 752 mmHg 43%
    12:00 +27°C° 0 mm 2 mps 752 mmHg 42%
    13:00 +27°C° 0 mm 2 mps 751 mmHg 41%
    14:00 +28°C° 0 mm 2 mps 751 mmHg 40%
    15:00 +27°C° 0 mm 2 mps 750 mmHg 43%
    16:00 +27°C° 0 mm 1 mps 750 mmHg 46%
    17:00 +27°C° 0 mm 1 mps 750 mmHg 50%
    18:00 +25°C° 0 mm 1 mps 750 mmHg 55%
    19:00 +23°C° 0 mm 1 mps 749 mmHg 60%
    20:00 +22°C° 0 mm 1 mps 749 mmHg 65%
    21:00 +20°C° 0 mm 1 mps 749 mmHg 68%
    22:00 +19°C° 0 mm 1 mps 749 mmHg 71%
    23:00 +16°C° 0 mm 0 mps 748 mmHg 73%

    29 June, Friday

    Time Temperature Precipitation Wind Pressure Humidity
    00:00 +18°C° 0 mm 1 mps 748 mmHg 75%
    01:00 +16°C° 0 mm 1 mps 748 mmHg 76%
    02:00 +16°C° 0 mm 1 mps 748 mmHg 78%
    03:00 +16°C° 0 mm 1 mps 747 mmHg 77%
    04:00 +18°C° 0 mm 1 mps 747 mmHg 76%
    05:00 +19°C° 0 mm 1 mps 746 mmHg 76%
    06:00 +21°C° 0 mm 1 mps 746 mmHg 70%
    07:00 +21°C° 0 mm 2 mps 746 mmHg 64%
    08:00 +24°C° 0 mm 2 mps 745 mmHg 58%
    09:00 +25°C° 0.2 mm 3 mps 745 mmHg 54%
    10:00 +26°C° 0.2 mm 3 mps 744 mmHg 51%
    11:00 +27°C° 0.2 mm 4 mps 743 mmHg 47%
    12:00 +27°C° 0 mm 4 mps 743 mmHg 48%
    13:00 +26°C° 0 mm 4 mps 742 mmHg 49%
    14:00 +26°C° 0 mm 4 mps 741 mmHg 51%
    15:00 +25°C° 0.2 mm 3 mps 741 mmHg 56%
    16:00 +25°C° 0.2 mm 3 mps 740 mmHg 60%
    17:00 +24°C° 0.2 mm 3 mps 740 mmHg 65%
    18:00 +21°C° 0.8 mm 3 mps 739 mmHg 72%
    19:00 +20°C° 0.8 mm 3 mps 739 mmHg 79%
    20:00 +18°C° 0.8 mm 3 mps 738 mmHg 86%
    21:00 +17°C° 0.1 mm 2 mps 738 mmHg 89%
    22:00 +17°C° 0.1 mm 2 mps 738 mmHg 91%
    23:00 +16°C° 0.1 mm 2 mps 737 mmHg 93%

    30 June, Saturday

    Time Temperature Precipitation Wind Pressure Humidity
    00:00 +16°C° 0.1 mm 2 mps 737 mmHg 94%
    01:00 +16°C° 0.1 mm 2 mps 737 mmHg 94%
    02:00 +16°C° 0.1 mm 2 mps 737 mmHg 95%
    03:00 +15°C° 0.8 mm 2 mps 737 mmHg 95%
    04:00 +14°C° 0.8 mm 3 mps 736 mmHg 96%
    05:00 +14°C° 0.8 mm 3 mps 736 mmHg 96%
    06:00 +14°C° 0.3 mm 3 mps 736 mmHg 94%
    07:00 +15°C° 0.3 mm 2 mps 736 mmHg 93%
    08:00 +15°C° 0.3 mm 2 mps 736 mmHg 91%
    09:00 +15°C° 0.3 mm 2 mps 736 mmHg 87%
    10:00 +15°C° 0.3 mm 2 mps 736 mmHg 83%
    11:00 +15°C° 0.3 mm 2 mps 736 mmHg 79%
    12:00 +15°C° 0.1 mm 2 mps 736 mmHg 76%
    13:00 +15°C° 0.1 mm 2 mps 736 mmHg 74%
    14:00 +16°C° 0.1 mm 2 mps 736 mmHg 71%
    15:00 +16°C° 0 mm 2 mps 735 mmHg 70%
    16:00 +16°C° 0 mm 2 mps 735 mmHg 68%
    17:00 +16°C° 0 mm 2 mps 735 mmHg 67%
    18:00 +15°C° 0 mm 2 mps 735 mmHg 73%
    19:00 +14°C° 0 mm 2 mps 735 mmHg 79%
    20:00 +13°C° 0 mm 2 mps 735 mmHg 85%
    21:00 +12°C° 0 mm 2 mps 735 mmHg 89%
    22:00 +10°C° 0 mm 2 mps 735 mmHg 93%
    23:00 +9°C° 0 mm 2 mps 735 mmHg 97%
    Show more